COSMOS 397 DEB

Satellite information

Favourite Embed

Satellite Type and Status

DEBRISIN ORBIT

Key statistics

Satellite COSMOS 397 DEB at a glance.

Uptime

19916

Days in orbit

Revolutions

≈ 13.6

Per day

Orbit

LEO

Low Earth Orbit

Inclination

65.8

Latest

Satellite identification and parameters

Extended collection of information and parameters for COSMOS 397 DEB.

Object identification

Identified? True

Debris? True

Object name: COSMOS 397 DEB

International designator: 1971-015K

Object number (NORAD): 5016

Object ID (CCSDS): 5016

Country: COMMONWEALTH OF INDEPENDENT STATES (CIS)

Current information (Y/N): Y

RCS size: SMALL

Orbital parameters

Period: 105.667 minutes

Inclination: 65.8143 deg

SMA: 7403.777 km

Apoapsis: 1518.657 km

Periapsis: 532.626 km

RAAN: 54.239 deg

Eccentricy: 0.06658978

Argument of periapsis: 220.5492 deg

Mean anomaly: 134.4118 deg

Mean motion: 13.62770775 rev/day

Mean motion (dot): 0.0000642 rev/day2

B* drag term: 0.0017847815 1/REarth

Two-line elements (TLE)

Creation date: Sept. 4, 2025, 10:13 a.m.

Reference frame: TEME

Reference center: EARTH

Epoch: Sept. 4, 2025, 3:56 a.m. UTC

TLE line 0: 0 COSMOS 397 DEB

TLE line 1: 1 05016U 71015K 25247.16437822 .00006420 00000-0 17848-2 0 9991

TLE line 2: 2 05016 65.8143 54.2390 0665898 220.5492 134.4118 13.62770775614187

Live tracking on map

Real-time ground track for satellite COSMOS 397 DEB.

In-orbit conjunctions

A list of the most updated potential collisions computed for object COSMOS 397 DEB.

Target Orbit TCA Probability of collision Miss distance Type
BPA-2/SL-24 R/B SSO 2025-06-01 19:36:58 0.0001905505 890.0 (m) ROCKET BODY
OBJECT F SSO 2025-05-30 06:19:07 0.0001634563 796.0 (m) UNKNOWN

Associated space launch

The I2P satellites were the first soviet coorbital ASAT system.

COSMOS 397 DEB was lifted into orbit during the mission ‘Tsiklon-2 | I2P 6’, on board a Tsiklon-2 space rocket.

The launch took place on Feb. 25, 1971, 11:11 a.m. from 90/20.

For more information about the launch, click the button.

Launch to space Tsiklon-2 | I2P 6
Tsiklon-2 | I2P 6

Agency: N/A

Status: Launch Successful

Launch date: Feb. 25, 1971, 11:11 a.m. UTC

Rocket: Tsiklon-2

Launch pad: 90/20

Location: Baikonur Cosmodrome, Republic of Kazakhstan

...

Latest news about this satellite

There are no fresh news available about this satellite. Check back as we update our databases every day.


Newsletter sign-up

Weekly statistics, charts and insights to help you stay on top of the space industry.